Regional Weather Roundup
Issued by NWS Pendleton, OR

Home | Current Version | Previous Version | Text Only | Print | Product List | Glossary On
Versions: 1 2 3 4 5 6 7 8 9 10 11 12 13 14 15 16 17 18 19 20 21 22 23 24 25 26 27 28 29 30 31 32 33 34 35 36 37 38 39 40 41 42 43 44 45 46 47 48 49 50
000
ASUS46 KPDT 251625
RWRPDT
PENDLETON REGIONAL WEATHER ROUNDUP
NATIONAL WEATHER SERVICE PENDLETON OREGON
800 AM PST SUN FEB 25 2018

NOTE: FAIR INDICATES FEW OR NO CLOUDS BELOW 12,000 FEET WITH NO
SIGNIFICANT WEATHER AND/OR OBSTRUCTIONS TO VISIBILITY.

# INDICATES UNOFFICIAL STATION AND DATA

WAZ520-251710-
EAST SLOPES OF WASHINGTON CASCADES

CITY            SKY/WX      TMP DP  RH  WIND    PRES   REMARKS
#BULLFROG       N/A         32  31  96  CALM    N/A
#CLE ELUM HS    N/A         32  31  96  CALM    29.71F
#EASTON DOT     N/A         32  31  96  N2      N/A
#ELK HTS DOT    N/A         31  30  96  CALM    N/A
#GLENWOOD       N/A         35  33  92  S7      29.89F
#NELSON 3SW     N/A         29  27  92  CALM    30.00F
#NILE           N/A         30  28  92  CALM    29.06F
#TEANAWAY 4NE   N/A         32  32  100 CALM    N/A
#TROUT LAKE 1NE N/A         35  33  92  SW5     29.91F
#TROUT LAKE 1E  N/A         34  32  92  CALM    29.88F
$$

WAZ521-251710-
SIMCOE HIGHLANDS

CITY            SKY/WX      TMP DP  RH  WIND    PRES   REMARKS
#BICKLETON HS   N/A         33  29  85  W32     29.44S WCI 19
#SATUS PASS DOT N/A         31  30  96  CALM    N/A
#CENTERVILLE 1SWN/A         37  31  79  W15     29.88F WCI 28
#GOLDENDALE 1NE N/A         38  21  50  CALM    N/A
#GOLDENDALE 4W  N/A         37  24  59  N3      29.90F
#GOODNOE HILLS  N/A         38  31  76  W12     29.79F WCI 30
#LYLE 6NE       N/A         38  35  89  S9      29.94F
#PITT 4SE       N/A         34  32  92  SW14G26 29.96F WCI 25
$$

WAZ026-251710-
KITTITAS VALLEY

CITY            SKY/WX      TMP DP  RH  WIND    PRES   REMARKS
ELLENSBURG AP   CLOUDY      35  28  75  W3      29.74F
#ELLENSBURG CWU N/A         30  26  85  W1      29.74F
#ELLENSBURG 3NE N/A         33  28  82  CALM    27.84F
#ELLENSBURG 1E  N/A         31  26  81  CALM    29.86R
#KITTITAS 3S    N/A         30  26  85  W1      29.80S
#MANASTASH RDG  N/A         33  32  96  S18     N/A    WCI 22
#ROCKY CYN DOT  N/A         31  31  100 CALM    N/A
#RYEGRASS DOT   N/A         34  24  66  CALM    N/A
$$

WAZ027-251710-
YAKIMA VALLEY

CITY            SKY/WX      TMP DP  RH  WIND    PRES   REMARKS
SUNNYSIDE AP    MOCLDY      42  29  60  S12     29.83F WCI 35
YAKIMA AIRPORT  MOCLDY      45  29  53  W10     29.78F
YAKIMA-VAGABOND SUNNY       40  28  62  S13     29.75S WCI 32
#DONALD 2NE     N/A         44   9  23  S9      28.66F
#GRANDVIEW      N/A         42  30  62  SW3     29.88F
#MABTON         N/A         45  34  65  S18G35  29.85F WCI 37
#MOXEE 2E       N/A         38  N/A N/A E3      29.93S
#NACHES 2SW     N/A         36  32  85  W2      29.76F
#OUTLOOK DOT    N/A         44  27  51  CALM    29.81F
#PARKER DOT     N/A         42  29  60  N10     29.81F
#TERRACE HTS    N/A         39  31  73  S2      29.80F
#TOPPENISH      N/A         44  31  60  CALM    29.76F
#I82 S UMTANUM RN/A         36  26  67  S6      N/A
#UNION GAP DOT  N/A         N/A N/A N/A SW8     N/A
#W YAKIMA       N/A         42  30  62  SW9     29.82F
#WHITE SWAN 5E  N/A         42  31  65  CALM    29.82F
#WILEY CITY 3W  N/A         40  26  57  CALM    29.74F
#ZILLAH DOT     N/A         43  28  55  SW3     N/A
$$

WAZ028-251710-
LOWER COLUMBIA BASIN...WASHINGTON

CITY            SKY/WX      TMP DP  RH  WIND    PRES   REMARKS
PASCO           MOCLDY      44  26  49  S10     29.89F
PROSSER AWOS    N/A         43  30  60  S18G29  29.87F WCI 35
RICHLAND AWOS   MOCLDY      44  29  55  S25G35  29.85F WCI 35
#BENTON CITY    N/A         39  30  70  S3      29.79F
#CONNELL 5N     N/A         38  31  76  SW14    29.85F WCI 30
#CONNELL 5NW    N/A         38  30  73  SW16G28 29.80F WCI 29
#ELTOPIA 6NW    N/A         40  30  67  SW5     28.81F
#KAHLOTUS       N/A         39  29  67  W37G45  29.86F WCI 26
#KENNEWICK 3S   N/A         40  28  62  W15G26  29.86F WCI 32
#PATERSON       N/A         40  30  67  N1      29.90F
#PROSSER DOT    N/A         43  31  62  S18G26  29.86F WCI 35
#SAGEMOOR 2W    N/A         41  29  62  SW20G26 29.73F WCI 32
#TOUCHET 2S     N/A         44  29  55  S7      29.91F
#WEST PASCO     N/A         42  29  60  CALM    29.85F
$$

WAZ029-251710-
FOOTHILLS OF THE BLUES...WASHINGTON

CITY            SKY/WX      TMP DP  RH  WIND    PRES   REMARKS
WALLA WALLA AP  CLOUDY      43  26  51  S18     29.90F WCI 35
#CLYDE 6NW      N/A         40  28  62  S20G28  29.89F WCI 30
#DELANEY DOT    N/A         42  24  48  S17G26  29.89F WCI 34
#LOWDEN 2SE     N/A         44  28  53  S12     29.89F WCI 38
#PLEASANT VIEW 1N/A         36  27  69  S22G31  29.92F WCI 25
#PRESCOTT       N/A         43  29  57  SE1     29.91F
#WHITMAN COLLEGEN/A         43  29  57  SE6     29.98F
#WAITSBURG 6SSE N/A         40  25  55  S12G25  29.75F WCI 33
#WALLA WALLA 5E N/A         42  29  60  S22G29  N/A    WCI 33
#WHITMAN MISSIONN/A         44  28  53  SE6     29.95F
$$

WAZ030-251710-
BLUE MOUNTAINS...WASHINGTON

CITY            SKY/WX      TMP DP  RH  WIND    PRES   REMARKS
#DIXIE 5SE      N/A         34  26  72  S22G35  29.77F WCI 22
$$

ORZ009-041-WAZ024-251710-
COLUMBIA RIVER GORGE

CITY            SKY/WX      TMP DP  RH  WIND    PRES   REMARKS
HOOD RIVER AP   LGT RAIN    41  36  82  W6      29.92F
THE DALLES AP   MOCLDY      43  35  73  CALM    29.91F
#ARLINGTON AIRPON/A         40  31  70  W9      29.92F
#ARLINGTON HS   N/A         42  29  60  CALM    29.82F
#CELILO DOT     N/A         44  29  55  S1      N/A
#LYLE           N/A         42  38  86  CALM    29.94F
#MARYHILL       N/A         38  30  73  N2      N/A
#MURDOCK        N/A         43  38  82  NW10    29.87F
#RUFUS DOT      N/A         43  N/A N/A NW1     N/A
#SMITHVILLE     N/A         43  38  82  N7      29.88F

$$

ORZ510-251710-
NORTH CENTRAL OREGON

CITY            SKY/WX      TMP DP  RH  WIND    PRES   REMARKS
#ANTELOPE       N/A         35  26  69  SW9     29.91S
#CHENOWITH 1W   N/A         37  34  89  NW13    N/A    WCI 29
#COW CYN RST AREN/A         34  N/A N/A S16     N/A    WCI 24
#DUFUR          N/A         41  33  73  W1      29.89F
#DUFUR 9E       N/A         37  30  75  SW30G39 29.99F WCI 24
#GRASS VALLEY 1SN/A         37  29  72  S21G28  29.90F WCI 26
#KENT DOT       N/A         35  19  52  SW22G30 N/A    WCI 23
#MAUPIN SCHOOL  N/A         44  29  55  SW5     29.99F
#SHANIKO 5WSW   N/A         30  N/A N/A S23G31  N/A    WCI 17
#SHANIKO 4NW    N/A         29  23  78  SW9G35  29.88F
#TYGH VALLEY 2NEN/A         43  32  65  N7      29.93F
#WAPANITIA AIRPON/A         39  30  70  W9      29.97F
#WASCO DOT      N/A         36  31  82  SE3     N/A
#WASCO 5NE      N/A         37  30  75  SW9     29.93F
$$

ORZ511-251710-
CENTRAL OREGON

CITY            SKY/WX      TMP DP  RH  WIND    PRES   REMARKS
BEND AIRPORT    PTCLDY      36  25  64  S10     30.01F
PRINEVILLE AP   CLOUDY      36  25  64  S17     30.00F WCI 26
REDMOND AIRPORT MOCLDY      35  25  66  S15     29.99F WCI 25
#ASHWOOD SCHOOL N/A         38  25  59  SE10    29.93F
#BEND 1SW       N/A         32  26  78  W3      N/A
#BEND-AWBREY    N/A         34  27  75  SW9     30.09F
#BEND-KIM LN    N/A         40  27  59  SW15G32 30.01F WCI 32
#CULVER         N/A         34  24  66  S7      29.90F
#CULVER 8W      N/A         37  23  56  S6      29.96F
#LAKE BILLY CHINN/A         38  N/A N/A SW7     30.08F
#POWELL BUTTE   N/A         34  20  56  S20     29.93F WCI 23
#PRINEVILLE     N/A         28  24  85  CALM    30.22S
#PRINEVILLE 3N  N/A         32  25  75  E7      30.11F
#WARM SPRINGS   N/A         41  29  62  CALM    29.84F

$$


ORZ509-251710-
EAST SLOPES OF OREGON CASCADES

CITY            SKY/WX      TMP DP  RH  WIND    PRES   REMARKS
SISTERS AWOS    N/A         37  27  67  SW13G28 29.94F WCI 29
#BLUE BOX PASS  N/A         29  N/A N/A NW2     N/A
#CAMP SHERMAN   N/A         33  27  78  S2      30.11F
#LA PINE DOT    N/A         27  24  88  S8      N/A
#LA PINE 4NW    N/A         26  22  85  CALM    30.22F
#LAVA BUTTE DOT N/A         26  22  85  SE3     N/A
#SISTERS ODOT   N/A         38  24  57  SW7     N/A
#SISTERS 3N     N/A         36  23  59  N3      30.00S
#SUNRIVER       N/A         28  25  88  S5      30.10F
#WANOGA BUTTE D N/A         24  22  92  W28G41  N/A    WCI  7

$$

ORZ044-251710-
LOWER COLUMBIA BASIN...OREGON

CITY            SKY/WX      TMP DP  RH  WIND    PRES   REMARKS
HERMISTON       MOCLDY      45  27  49  SW17    29.90F WCI 38
#BOARDMAN SCHOOLN/A         45  30  55  S13     29.88F WCI 39
#BOARDMAN 8SW   N/A         45  31  58  SW22    29.90F WCI 37
#ECHO 8SW       N/A         44  26  49  CALM    29.90F
#I-84 EX 198 DOTN/A         43  25  49  NE16    N/A    WCI 35
#IONE SCHOOL    N/A         43  27  53  S15G26  29.97F WCI 36
#UMATILLA       N/A         45  27  49  S7      29.85F
$$

ORZ507-251710-
NORTHERN FOOTHILLS OF THE BLUES

CITY            SKY/WX      TMP DP  RH  WIND    PRES   REMARKS
PENDLETON AIRPT CLOUDY      40  24  52  S17     29.92F WCI 31
#ADAMS 3WNW     N/A         37  27  67  SW18    29.96F WCI 27
#ATHENA         N/A         38  28  67  S6      30.00F
#CAYUSE         N/A         43  28  55  SW24G33 29.95  WCI 34
#HELIX SCHOOL   N/A         37  28  70  N17G26  29.96F WCI 27
#HELIX 3N       N/A         36  28  72  S21G31  29.90F WCI 25
#HOLDMAN 5SE    N/A         39  29  67  S3      29.91F
#HOLDMAN 6E     N/A         37  29  72  S21     29.74  WCI 26
#M-F GROVE ELEM N/A         42  25  51  S7      29.88F
#M-FREEWATER 5SEN/A         41  27  57  S8      29.91F
#PENDLETON DNTN N/A         41  21  44  SW10    N/A
#PDT AQUATIC CTRN/A         41  24  50  S9      29.91F
#PDT SUNRIDGE   N/A         41  27  57  S16     29.95F WCI 33
#PENDLETON 6SE  N/A         40  28  62  S21     29.93F WCI 30
#PENDLETON 7NW  N/A         40  27  59  S6      31.32S
#PILOT ROCK 1S  N/A         39  20  46  SE17G24 29.93F WCI 30
#PILOT ROCK     N/A         39  26  59  CALM    29.92F
#TUTUILLA       N/A         37  26  64  S12G24  30.00F WCI 29
#UMAPINE 2E     N/A         44  29  55  S8      29.89F

$$

ORZ508-251710-
SOUTHERN FOOTHILLS OF THE BLUES

CITY            SKY/WX      TMP DP  RH  WIND    PRES   REMARKS
#AJAX           N/A         37  20  50  NW17G29 30.04F WCI 27
#CONDON 5W      N/A         32  22  66  SW20G35 29.85F WCI 20
#FOSSIL SCHOOL  N/A         38  25  59  SW13G26 29.88F WCI 30
#HEPPNER EOC    N/A         38  25  59  N12G30  29.93F WCI 30
#HEPPNER 4NE    N/A         35  25  66  SE7     30.00F
#LEXINGTON 2SE  N/A         42  26  53  S15     29.90F WCI 34
#MIKKALO        N/A         40  25  55  SW16G31 29.99F WCI 32
#OLEX 4N        N/A         42  30  62  SW24G32 29.86F WCI 32
#RUGGS 5NE      N/A         35  22  59  S22     30.07S WCI 23
#RUGGS 2SW      N/A         34  24  66  S13     30.03F WCI 25

$$

ORZ502-503-251710-
BLUE MOUNTAINS

CITY            SKY/WX      TMP DP  RH  WIND    PRES   REMARKS
MEACHAM         CLOUDY      29  21  72  CALM    29.90F
#BATTLE MTN DOT N/A         25  18  74  SE8G24  N/A
#GRANITE        N/A         24  16  71  N1      29.56F
#HARDMAN 10S    N/A         27  20  74  S8      30.19F
#LADD CYN SMT   N/A         25  21  84  SE15    N/A    WCI 13
#LADD CREEK ODOTN/A         28  16  60  S8      N/A
#N POWDER DOT   N/A         25  23  92  W3      N/A
#PIKES PEAK     N/A         32  22  66  S39G50  27.99S WCI 16
#SUMMERVILLE 5NWN/A         27  24  88  E2      27.89F
#TROY SCHOOL    N/A         35  30  82  SW3     29.87F
#UKIAH          N/A         30  22  72  SW1     30.00F
#WESTON 4E      N/A         31  25  78  S10     29.99F
$$

ORZ505-251710-
JOHN DAY BASIN

CITY            SKY/WX      TMP DP  RH  WIND    PRES   REMARKS
JOHN DAY        LGT SNOW    31  22  69  S15     30.03S WCI 20
#ANTELOPE 9ESE  N/A         42  25  51  S3      N/A
#DAYVILLE SCHOOLN/A         34  19  54  S14     30.01F WCI 25
#MITCHELL 8NW   N/A         32  21  63  SW7     30.13F
#MONUMENT HS    N/A         31  21  66  NE5     29.98F
#MT. VERNON 5SE N/A         28  20  71  SE3     29.97S
#SPRAY SCHOOL   N/A         31  N/A N/A CALM    N/A
$$

ORZ506-251710-
OCHOCO AND JOHN DAY HIGHLANDS

CITY            SKY/WX      TMP DP  RH  WIND    PRES   REMARKS
#HORSE RIDGE DO N/A         32  19  58  S6      N/A
#IZEE 6NW       N/A         31  22  69  CALM    N/A
#KEYES SMT DOT  N/A         28  18  66  S13     N/A    WCI 17
#PAULINA ODOT   N/A         28  18  66  SW2     N/A
#PRAIRIE CITY   N/A         25  16  68  CALM    30.20S
#SENECA         N/A         23  N/A N/A SE5     N/A
#SENECA 9NW     N/A         22  19  88  CALM    30.20S
$$

ORZ049-251710-
GRANDE RONDE VALLEY

CITY            SKY/WX      TMP DP  RH  WIND    PRES   REMARKS
LA GRANDE       LGT SNOW    30  22  72  SE10    30.00S
#COVE SCHOOL    N/A         32  25  75  E2      30.00S
#COVE 6NW       N/A         29  24  81  S5      30.11S
#ELGIN 3N       N/A         28  19  68  S15     29.90F WCI 16
#ELGIN 1E       N/A         30  24  78  CALM    N/A
#IMBLER SCHOOL  N/A         27  24  88  SE16G30 29.93F WCI 15
#ISLAND CITY 4N N/A         41  40  96  SW1     30.01F
#LADD CYN DOT   N/A         29  24  81  S22G29  N/A    WCI 15
#UNION 1S       N/A         30  24  78  SE14    30.11F WCI 19
$$

ORZ050-251710-
WALLOWA COUNTY

CITY            SKY/WX      TMP DP  RH  WIND    PRES   REMARKS
#IMNAHA SCHOOL  N/A         35  23  61  SE13    30.00F WCI 26
#IMNAHA 10S     N/A         31  21  66  SW8     29.96F
#LOSTINE        N/A         31  20  63  E6      29.84F
#LOSTINE 3SE    N/A         27  18  68  W3      29.96F
#MT HOWARD 8000 N/A         17  14  88  W21G45  29.70R WCI -
#WALLOWA LAKE   N/A         29  21  72  SW3     29.89F
#WALLOWA SCHOOL N/A         34  23  64  W1      29.91F



$$



USA.gov is the U.S. government's official web portal to all federal, state and local government web resources and services.